SCP
0 0 0 0 0 -0 0 -0 -0 -0 -0 0 0 0 0 0 0 0 0 0 0 0 0 0 0 0 0 0 0 0 0 0 0 0 -0 -0 -0 -0 0 0 -0 -0 -0
0 -0 0 0 -0 -0 -0 -0 -0 -0 -0 -0 0 0 0 0 0 0 -0 0 0 0 0 0 0 0 0 0 0 0 0 0 0 0 0 0 -0 -0 0 0 0 -0 -0
-0 -0 -0 -0 -0 -0 -0 -0 -0 -0 -0 0 0 0 0 0 0 0 0 0 0 0 0 0 0 0 0 0 0 0 0 0 0 0 0 0 -0 -0 0 0 0 0 0
-0 -0 -0 -0 -0 0 0 0 0 0 0 -0 0 0 0 0 0 0 0 -0 0 0 0 0 0 0 0 0 0 0 0 0 0 0 -0 0 0 -0 -0 0 0 0 0
-0 -0 -0 -0 0 0 0 0 0 0 0 0 0 0 0 0 0 0 0 -0 0 0 0 0 0 0 0 0 0 0 0 -0 0 0 0 0 0 -0 0 -0 0 0 0
-0 0 -0 -0 0 0 0 0 -0 0 0 0 0 0 0 0 0 0 0 0 -0 0 0 0 0 0 0 0 0 0 0 0 0 0 0 0 -0 -0 -0 0 -0 -0 0
-0 -0 0 0 0 0 -0 0 0 0 0 -0 0 0 0 0 0 0 -0 0 0 0 0 0 0 0 0 0 0 0 0 0 0 0 0 -0 -0 -0 -0 0 0 0 0
0 0 0 0 0 0 0 0 0 0 -0 -0 -0 0 0 0 0 -0 -0 -0 -0 -0 0 0 0 0 0 0 0 0 0 0 0 0 0 0 -0 -0 -0 0 0 0 0
0 0 0 0 0 0 0 -0 0 0 -0 -0 -0 0 0 0 0 0 0 -0 -0 0 -0 0 0 0 0 0 0 0 0 0 0 0 0 0 0 0 -0 -0 0 0 -0
0 0 0 0 0 0 0 0 0 -0 -0 -0 -0 0 -0 0 0 0 0 0 0 0 0 0 0 0 0 0 0 0 0 0 0 0 0 0 0 0 0 0 0 0 0
0 1 1 1 0 0 0 0 0 0 -0 -0 -0 -0 -0 0 0 0 -0 0 -0 -0 0 0 0 0 0 0 0 0 0 0 0 0 0 0 0 0 0 0 0 0 0
0 0 1 2 1 0 0 0 0 0 0 0 0 -0 -0 -0 -0 -0 -0 0 -0 -0 -0 -0 0 0 -0 -0 0 0 0 0 0 0 0 0 0 0 0 0 0 0 0
1 0 1 1 1 0 0 0 0 0 0 -0 -0 -0 -0 -0 -0 -0 -0 -0 -0 -0 0 0 0 0 0 0 -0 0 0 0 0 0 0 0 0 0 0 0 0 0 0
0 0 1 1 1 0 0 0 0 0 0 -0 -0 -0 -0 -0 -0 -0 -0 -0 -0 0 -0 -0 0 0 0 0 0 0 0 0 0 0 0 0 0 0 0 0 0 0 0
1 1 1 1 0 0 0 0 0 0 0 0 -0 -0 -0 -0 -0 0 -0 -0 0 0 0 -0 -0 -0 -0 0 0 0 0 0 0 0 0 0 0 0 0 0 0 0 0
1 1 1 0 0 0 0 0 0 0 0 0 -0 -0 0 0 0 0 0 0 0 0 0 0 0 0 0 0 -0 0 0 0 0 0 0 0 0 0 0 0 0 0 0
1 1 1 0 0 -0 -0 -0 0 0 0 0 0 0 0 0 0 0 0 0 0 0 0 0 0 0 0 0 0 0 0 0 0 0 0 0 0 0 0 0 0 0 0
1 1 1 0 0 0 -0 0 0 0 0 0 0 0 0 0 0 0 0 0 0 0 0 0 0 0 0 0 0 0 0 0 0 0 0 0 0 0 0 0 0 0 0
1 0 1 0 0 0 -0 0 0 0 0 0 0 0 0 0 0 0 0 0 0 0 0 0 0 0 0 0 0 0 0 0 0 0 0 0 0 0 0 0 0 0 0
0 1 1 1 0 0 0 0 0 0 0 1 1 0 0 0 0 0 0 0 0 0 0 0 0 0 0 0 0 0 0 0 0 0 0 0 0 0 0 0 0 0 0
0 1 1 1 1 1 1 1 1 1 1 1 1 1 1 1 0 0 0 0 0 0 0 0 0 0 0 0 0 0 0 0 0 0 0 0 0 0 0 0 0 0 0
0 1 1 1 1 2 2 1 2 2 3 2 2 1 1 0 0 0 0 0 0 0 0 0 0 0 0 0 0 0 0 0 0 0 0 0 0 0 0 0 0 0 0
2 1 1 1 1 2 2 2 3 4 3 0 0 0 0 0 0 0 0 0 0 0 0 0 0 0 0 0 0 0 0 0 0 0 0 0 0 0 0 0 0 0 0
1 -0 0 1 1 2 2 3 3 1 0 0 0 0 0 -0 -0 0 0 0 0 0 0 0 0 0 0 0 0 0 0 0 0 0 0 0 0 0 0 0 0 0 0
3 1 1 1 0 1 1 1 1 1 0 0 0 0 0 0 0 0 0 0 0 0 0 0 0 0 0 0 0 0 0 0 0 0 0 0 0 0 0 0 0 0 0
0 0 0 1 0 0 0 0 1 1 1 0 0 0 0 0 0 0 0 0 0 0 0 0 0 0 0 0 0 0 0 0 0 -0 0 0 0 0 0 0 0 0 0
Wind_Speed_500mb
51 40 68 55 70 63 70 82 78 73 66 64 61 58 57 53 48 34 34 30 25 27 27 16 15 19 17 17 28 28 22 21 15 16 23 24 23 22 20 16 32 43 39
46 32 56 61 65 64 63 75 85 80 74 72 68 65 61 55 60 38 37 31 34 32 26 24 22 23 22 20 23 31 27 23 20 19 20 14 22 24 20 18 27 41 44
50 42 35 60 68 74 65 68 74 85 80 83 75 73 64 56 53 46 39 39 37 31 29 31 23 20 23 23 25 27 32 23 22 24 18 12 14 27 24 21 25 36 47
63 59 40 54 57 66 67 58 68 85 88 88 81 76 67 72 60 45 51 46 39 33 29 28 27 22 21 22 23 27 31 30 27 23 30 17 14 18 16 25 25 29 41
65 69 66 49 56 53 65 63 60 74 85 87 78 72 74 68 72 58 55 41 52 46 39 38 32 25 26 25 26 30 39 37 32 25 21 26 14 20 11 23 34 33 37
59 56 56 53 36 59 58 47 55 61 67 77 79 68 74 75 69 52 51 48 40 48 42 35 33 26 27 29 30 26 35 37 34 29 27 22 25 23 18 15 35 38 34
59 54 53 56 32 37 64 52 47 57 68 67 63 57 59 64 64 52 48 45 46 43 36 34 31 30 31 29 30 30 36 37 36 34 28 24 21 21 22 21 21 29 34
61 57 52 60 52 48 52 43 40 46 63 57 50 45 47 57 61 57 54 47 38 33 32 29 22 31 31 30 29 32 37 36 35 37 29 24 23 20 15 18 15 16 29
55 51 34 39 47 44 49 45 41 44 47 48 45 45 46 53 57 46 39 30 34 35 25 21 19 19 21 34 30 34 39 35 33 39 33 26 13 19 20 17 8 14 21
55 44 36 27 33 33 34 36 35 39 43 40 38 36 34 38 36 32 28 23 23 22 25 17 15 16 23 38 35 31 38 34 30 31 36 32 24 22 21 18 16 14 14
65 49 38 34 36 36 33 34 37 36 35 34 35 34 32 31 34 32 22 18 21 24 22 17 15 9 5 21 29 25 30 34 35 35 34 36 37 35 32 26 21 20 17
53 50 41 45 43 46 36 37 35 37 38 37 33 31 32 32 30 28 22 20 21 18 18 20 18 12 9 15 25 24 26 29 35 37 36 32 31 31 33 35 30 24 18
51 49 47 49 48 46 38 32 38 42 40 37 35 32 33 34 30 27 29 27 24 19 18 20 23 25 21 13 18 15 16 20 23 32 33 32 29 28 27 31 35 33 29
57 54 59 56 53 49 44 35 33 42 42 40 37 34 31 32 30 26 31 28 25 25 23 19 23 24 23 20 19 19 18 18 27 33 31 34 35 33 33 32 32 34 33
55 62 70 65 65 59 51 43 38 42 42 44 40 37 30 31 32 34 32 29 25 30 27 21 21 21 20 22 25 29 31 33 28 24 24 27 29 29 30 28 28 30 32
69 70 74 67 69 59 57 50 46 45 45 46 43 38 34 36 36 36 35 33 28 28 24 18 18 20 20 20 21 23 22 21 17 16 16 14 10 14 17 17 18 20 21
78 75 79 70 71 61 59 58 55 50 52 49 47 44 44 42 42 39 39 37 33 31 28 24 22 22 23 24 25 26 28 28 24 20 21 21 19 19 20 21 22 25 27
62 75 80 74 75 66 61 55 58 55 55 53 52 50 54 48 48 48 45 38 37 36 32 28 24 21 22 23 25 28 29 29 25 19 16 16 18 22 23 23 24 24 26
63 67 77 70 75 71 63 55 59 63 59 59 59 58 59 56 56 55 51 45 41 38 31 26 22 19 18 17 20 25 27 29 29 24 21 20 19 18 18 21 25 27 31
58 64 74 70 78 76 72 63 64 70 70 64 63 60 62 58 60 56 58 52 40 33 31 28 24 23 22 18 18 23 28 32 31 27 21 20 15 14 11 13 16 18 22
52 58 66 65 67 79 78 72 70 75 71 67 64 63 64 60 60 60 60 50 44 40 36 29 25 27 28 25 24 25 27 30 29 27 21 19 18 15 12 12 14 17 18
39 55 58 58 61 72 79 75 74 68 76 72 69 63 51 40 48 53 53 52 49 45 39 31 31 31 26 23 22 22 25 26 26 25 20 20 17 15 16 13 13 15 15
26 4 26 36 41 50 69 74 75 76 73 56 50 49 35 33 60 63 64 60 58 55 46 41 39 31 24 22 21 20 17 11 20 24 19 19 17 16 14 11 10 9 7
48 19 9 3 20 29 45 61 66 66 57 38 20 34 34 70 68 75 77 70 62 54 41 41 36 32 30 29 25 21 20 17 17 13 13 19 17 13 12 12 12 12 11
14 23 5 6 3 5 16 32 43 52 60 55 44 62 65 60 76 78 79 69 52 43 36 34 30 33 34 33 32 27 23 15 10 6 9 18 15 15 16 15 16 11 7
20 68 14 3 8 4 3 15 28 35 38 39 35 53 60 60 84 77 83 65 48 38 33 29 30 33 24 24 30 31 27 26 12 9 13 19 23 24 24 21 20 13 11
Wind_Direction_500mb
217 227 215 218 220 226 229 227 223 222 214 211 210 213 214 213 214 246 237 231 237 248 250 252 251 269 265 233 232 235 233 227 229 242 239 241 225 234 234 224 196 199 200
204 241 216 217 215 222 228 229 227 228 221 217 215 219 216 216 217 230 233 246 256 255 266 269 254 267 257 243 238 235 239 229 224 233 235 223 221 225 231 215 205 198 201
230 229 210 213 216 221 228 231 231 232 224 222 216 219 222 222 217 221 235 254 255 264 271 274 269 269 264 245 235 242 237 233 229 228 223 190 209 212 227 218 209 201 205
234 235 241 227 221 222 229 231 233 233 227 227 222 221 234 226 225 230 253 250 254 264 275 281 272 277 269 251 243 245 240 231 225 225 227 224 219 186 197 216 210 208 211
251 243 239 239 233 228 231 236 236 230 231 229 223 230 235 235 240 248 253 262 246 252 273 279 276 274 269 263 253 252 240 227 217 223 235 222 229 203 199 205 209 214 213
247 242 241 237 249 233 229 231 232 234 233 227 224 233 238 241 241 244 240 256 250 251 261 273 272 271 270 258 255 247 218 216 217 216 219 230 225 215 223 212 213 216 215
241 237 230 226 250 229 225 238 226 228 222 222 228 243 242 236 239 241 247 264 253 247 256 261 262 260 261 257 242 228 216 217 220 217 227 224 233 231 240 235 223 221 216
239 237 230 231 232 232 228 236 231 226 221 228 235 236 231 231 234 241 252 255 238 236 243 248 269 269 246 246 227 221 213 215 216 218 223 229 222 231 214 231 224 207 211
236 227 222 226 221 224 229 232 231 232 228 232 231 226 228 232 237 239 239 229 233 229 228 235 261 298 249 231 223 216 207 213 223 223 227 228 227 225 244 249 246 216 213
230 223 207 210 211 215 218 217 224 230 231 230 224 217 214 225 216 205 213 219 217 214 222 241 256 271 261 220 207 207 205 212 221 224 228 230 228 235 236 245 240 247 232
220 215 221 222 216 210 201 208 213 211 205 194 188 182 177 189 199 201 205 218 210 212 213 232 252 282 213 201 184 194 202 211 225 230 236 235 241 242 240 238 238 237 241
218 213 191 195 204 204 198 205 198 186 178 171 178 182 190 202 207 201 201 199 185 209 218 228 232 217 181 168 174 193 208 214 228 230 233 236 234 235 235 232 233 237 244
202 195 191 193 201 199 196 195 186 182 181 178 178 187 198 202 200 198 204 208 210 210 222 214 214 209 216 189 164 170 198 205 224 230 231 231 228 229 236 237 237 239 242
201 200 196 195 203 203 199 189 189 191 192 192 191 190 194 195 196 195 198 215 207 206 211 205 206 206 209 209 195 219 216 221 223 213 217 223 230 234 236 241 241 246 250
202 205 201 199 205 207 202 194 184 186 194 200 200 195 194 194 196 201 203 203 206 214 212 207 200 193 196 200 200 199 198 201 208 212 219 226 228 231 236 241 240 243 247
211 206 205 203 206 205 204 199 193 191 193 200 202 203 206 206 207 203 202 204 215 211 214 222 211 204 200 201 204 203 204 203 207 219 231 233 217 211 228 228 232 232 236
215 212 210 207 208 206 202 201 202 198 201 201 204 206 209 211 208 205 202 210 211 214 215 216 218 220 219 222 222 223 224 229 236 237 235 242 250 256 259 253 246 241 243
216 217 215 210 212 211 206 204 206 204 206 207 205 208 212 213 208 204 204 208 208 210 210 210 216 224 234 237 241 242 237 237 238 235 230 235 253 265 264 256 250 250 250
227 228 225 221 215 214 209 206 210 210 211 213 213 212 214 217 213 210 209 212 209 209 214 216 215 225 240 251 252 241 232 229 229 224 230 250 261 267 271 268 259 252 248
236 234 231 224 221 218 213 211 212 213 215 216 216 218 221 221 219 220 216 217 215 219 217 218 223 229 237 257 258 239 227 227 229 235 242 249 241 256 257 270 260 249 237
234 234 235 232 226 224 218 215 216 217 222 220 218 220 223 229 228 225 216 217 218 215 215 221 236 251 264 269 251 232 232 229 235 243 245 235 243 249 270 268 250 241 238
253 239 232 228 228 229 223 220 222 224 223 219 216 218 223 240 254 242 227 221 218 216 217 230 247 254 259 261 248 233 226 233 237 235 247 242 238 262 283 275 258 246 237
16 249 227 234 237 233 231 229 226 224 221 227 225 218 198 252 267 247 241 227 216 220 219 234 237 236 235 230 222 233 250 237 233 235 235 243 258 274 273 255 232 232 232
304 349 32 231 231 232 242 240 233 228 230 220 87 70 216 259 266 252 236 240 225 219 235 223 221 227 229 228 230 235 228 213 217 244 248 252 259 261 250 232 221 227 235
244 275 146 47 5 192 223 244 242 234 235 229 249 241 213 242 247 250 236 230 224 230 239 225 227 229 226 233 238 213 177 161 165 186 229 243 247 262 242 226 219 215 214
39 305 310 91 285 321 313 253 251 247 247 251 228 212 223 236 229 235 222 210 220 221 214 221 224 233 223 210 206 209 216 222 221 241 268 275 273 262 242 231 230 236 243
Wind_Speed_850mb
51 40 68 55 70 63 70 82 78 73 66 64 61 58 57 53 48 34 34 30 25 27 27 16 15 19 17 17 28 28 22 21 15 16 23 24 23 22 20 16 32 43 39
46 32 56 61 65 64 63 75 85 80 74 72 68 65 61 55 60 38 37 31 34 32 26 24 22 23 22 20 23 31 27 23 20 19 20 14 22 24 20 18 27 41 44
50 42 35 60 68 74 65 68 74 85 80 83 75 73 64 56 53 46 39 39 37 31 29 31 23 20 23 23 25 27 32 23 22 24 18 12 14 27 24 21 25 36 47
63 59 40 54 57 66 67 58 68 85 88 88 81 76 67 72 60 45 51 46 39 33 29 28 27 22 21 22 23 27 31 30 27 23 30 17 14 18 16 25 25 29 41
65 69 66 49 56 53 65 63 60 74 85 87 78 72 74 68 72 58 55 41 52 46 39 38 32 25 26 25 26 30 39 37 32 25 21 26 14 20 11 23 34 33 37
59 56 56 53 36 59 58 47 55 61 67 77 79 68 74 75 69 52 51 48 40 48 42 35 33 26 27 29 30 26 35 37 34 29 27 22 25 23 18 15 35 38 34
59 54 53 56 32 37 64 52 47 57 68 67 63 57 59 64 64 52 48 45 46 43 36 34 31 30 31 29 30 30 36 37 36 34 28 24 21 21 22 21 21 29 34
61 57 52 60 52 48 52 43 40 46 63 57 50 45 47 57 61 57 54 47 38 33 32 29 22 31 31 30 29 32 37 36 35 37 29 24 23 20 15 18 15 16 29
55 51 34 39 47 44 49 45 41 44 47 48 45 45 46 53 57 46 39 30 34 35 25 21 19 19 21 34 30 34 39 35 33 39 33 26 13 19 20 17 8 14 21
55 44 36 27 33 33 34 36 35 39 43 40 38 36 34 38 36 32 28 23 23 22 25 17 15 16 23 38 35 31 38 34 30 31 36 32 24 22 21 18 16 14 14
65 49 38 34 36 36 33 34 37 36 35 34 35 34 32 31 34 32 22 18 21 24 22 17 15 9 5 21 29 25 30 34 35 35 34 36 37 35 32 26 21 20 17
53 50 41 45 43 46 36 37 35 37 38 37 33 31 32 32 30 28 22 20 21 18 18 20 18 12 9 15 25 24 26 29 35 37 36 32 31 31 33 35 30 24 18
51 49 47 49 48 46 38 32 38 42 40 37 35 32 33 34 30 27 29 27 24 19 18 20 23 25 21 13 18 15 16 20 23 32 33 32 29 28 27 31 35 33 29
57 54 59 56 53 49 44 35 33 42 42 40 37 34 31 32 30 26 31 28 25 25 23 19 23 24 23 20 19 19 18 18 27 33 31 34 35 33 33 32 32 34 33
55 62 70 65 65 59 51 43 38 42 42 44 40 37 30 31 32 34 32 29 25 30 27 21 21 21 20 22 25 29 31 33 28 24 24 27 29 29 30 28 28 30 32
69 70 74 67 69 59 57 50 46 45 45 46 43 38 34 36 36 36 35 33 28 28 24 18 18 20 20 20 21 23 22 21 17 16 16 14 10 14 17 17 18 20 21
78 75 79 70 71 61 59 58 55 50 52 49 47 44 44 42 42 39 39 37 33 31 28 24 22 22 23 24 25 26 28 28 24 20 21 21 19 19 20 21 22 25 27
62 75 80 74 75 66 61 55 58 55 55 53 52 50 54 48 48 48 45 38 37 36 32 28 24 21 22 23 25 28 29 29 25 19 16 16 18 22 23 23 24 24 26
63 67 77 70 75 71 63 55 59 63 59 59 59 58 59 56 56 55 51 45 41 38 31 26 22 19 18 17 20 25 27 29 29 24 21 20 19 18 18 21 25 27 31
58 64 74 70 78 76 72 63 64 70 70 64 63 60 62 58 60 56 58 52 40 33 31 28 24 23 22 18 18 23 28 32 31 27 21 20 15 14 11 13 16 18 22
52 58 66 65 67 79 78 72 70 75 71 67 64 63 64 60 60 60 60 50 44 40 36 29 25 27 28 25 24 25 27 30 29 27 21 19 18 15 12 12 14 17 18
39 55 58 58 61 72 79 75 74 68 76 72 69 63 51 40 48 53 53 52 49 45 39 31 31 31 26 23 22 22 25 26 26 25 20 20 17 15 16 13 13 15 15
26 4 26 36 41 50 69 74 75 76 73 56 50 49 35 33 60 63 64 60 58 55 46 41 39 31 24 22 21 20 17 11 20 24 19 19 17 16 14 11 10 9 7
48 19 9 3 20 29 45 61 66 66 57 38 20 34 34 70 68 75 77 70 62 54 41 41 36 32 30 29 25 21 20 17 17 13 13 19 17 13 12 12 12 12 11
14 23 5 6 3 5 16 32 43 52 60 55 44 62 65 60 76 78 79 69 52 43 36 34 30 33 34 33 32 27 23 15 10 6 9 18 15 15 16 15 16 11 7
20 68 14 3 8 4 3 15 28 35 38 39 35 53 60 60 84 77 83 65 48 38 33 29 30 33 24 24 30 31 27 26 12 9 13 19 23 24 24 21 20 13 11
Wind_Direction_850mb
217 227 215 218 220 226 229 227 223 222 214 211 210 213 214 213 214 246 237 231 237 248 250 252 251 269 265 233 232 235 233 227 229 242 239 241 225 234 234 224 196 199 200
204 241 216 217 215 222 228 229 227 228 221 217 215 219 216 216 217 230 233 246 256 255 266 269 254 267 257 243 238 235 239 229 224 233 235 223 221 225 231 215 205 198 201
230 229 210 213 216 221 228 231 231 232 224 222 216 219 222 222 217 221 235 254 255 264 271 274 269 269 264 245 235 242 237 233 229 228 223 190 209 212 227 218 209 201 205
234 235 241 227 221 222 229 231 233 233 227 227 222 221 234 226 225 230 253 250 254 264 275 281 272 277 269 251 243 245 240 231 225 225 227 224 219 186 197 216 210 208 211
251 243 239 239 233 228 231 236 236 230 231 229 223 230 235 235 240 248 253 262 246 252 273 279 276 274 269 263 253 252 240 227 217 223 235 222 229 203 199 205 209 214 213
247 242 241 237 249 233 229 231 232 234 233 227 224 233 238 241 241 244 240 256 250 251 261 273 272 271 270 258 255 247 218 216 217 216 219 230 225 215 223 212 213 216 215
241 237 230 226 250 229 225 238 226 228 222 222 228 243 242 236 239 241 247 264 253 247 256 261 262 260 261 257 242 228 216 217 220 217 227 224 233 231 240 235 223 221 216
239 237 230 231 232 232 228 236 231 226 221 228 235 236 231 231 234 241 252 255 238 236 243 248 269 269 246 246 227 221 213 215 216 218 223 229 222 231 214 231 224 207 211
236 227 222 226 221 224 229 232 231 232 228 232 231 226 228 232 237 239 239 229 233 229 228 235 261 298 249 231 223 216 207 213 223 223 227 228 227 225 244 249 246 216 213
230 223 207 210 211 215 218 217 224 230 231 230 224 217 214 225 216 205 213 219 217 214 222 241 256 271 261 220 207 207 205 212 221 224 228 230 228 235 236 245 240 247 232
220 215 221 222 216 210 201 208 213 211 205 194 188 182 177 189 199 201 205 218 210 212 213 232 252 282 213 201 184 194 202 211 225 230 236 235 241 242 240 238 238 237 241
218 213 191 195 204 204 198 205 198 186 178 171 178 182 190 202 207 201 201 199 185 209 218 228 232 217 181 168 174 193 208 214 228 230 233 236 234 235 235 232 233 237 244
202 195 191 193 201 199 196 195 186 182 181 178 178 187 198 202 200 198 204 208 210 210 222 214 214 209 216 189 164 170 198 205 224 230 231 231 228 229 236 237 237 239 242
201 200 196 195 203 203 199 189 189 191 192 192 191 190 194 195 196 195 198 215 207 206 211 205 206 206 209 209 195 219 216 221 223 213 217 223 230 234 236 241 241 246 250
202 205 201 199 205 207 202 194 184 186 194 200 200 195 194 194 196 201 203 203 206 214 212 207 200 193 196 200 200 199 198 201 208 212 219 226 228 231 236 241 240 243 247
211 206 205 203 206 205 204 199 193 191 193 200 202 203 206 206 207 203 202 204 215 211 214 222 211 204 200 201 204 203 204 203 207 219 231 233 217 211 228 228 232 232 236
215 212 210 207 208 206 202 201 202 198 201 201 204 206 209 211 208 205 202 210 211 214 215 216 218 220 219 222 222 223 224 229 236 237 235 242 250 256 259 253 246 241 243
216 217 215 210 212 211 206 204 206 204 206 207 205 208 212 213 208 204 204 208 208 210 210 210 216 224 234 237 241 242 237 237 238 235 230 235 253 265 264 256 250 250 250
227 228 225 221 215 214 209 206 210 210 211 213 213 212 214 217 213 210 209 212 209 209 214 216 215 225 240 251 252 241 232 229 229 224 230 250 261 267 271 268 259 252 248
236 234 231 224 221 218 213 211 212 213 215 216 216 218 221 221 219 220 216 217 215 219 217 218 223 229 237 257 258 239 227 227 229 235 242 249 241 256 257 270 260 249 237
234 234 235 232 226 224 218 215 216 217 222 220 218 220 223 229 228 225 216 217 218 215 215 221 236 251 264 269 251 232 232 229 235 243 245 235 243 249 270 268 250 241 238
253 239 232 228 228 229 223 220 222 224 223 219 216 218 223 240 254 242 227 221 218 216 217 230 247 254 259 261 248 233 226 233 237 235 247 242 238 262 283 275 258 246 237
16 249 227 234 237 233 231 229 226 224 221 227 225 218 198 252 267 247 241 227 216 220 219 234 237 236 235 230 222 233 250 237 233 235 235 243 258 274 273 255 232 232 232
304 349 32 231 231 232 242 240 233 228 230 220 87 70 216 259 266 252 236 240 225 219 235 223 221 227 229 228 230 235 228 213 217 244 248 252 259 261 250 232 221 227 235
244 275 146 47 5 192 223 244 242 234 235 229 249 241 213 242 247 250 236 230 224 230 239 225 227 229 226 233 238 213 177 161 165 186 229 243 247 262 242 226 219 215 214
39 305 310 91 285 321 313 253 251 247 247 251 228 212 223 236 229 235 222 210 220 221 214 221 224 233 223 210 206 209 216 222 221 241 268 275 273 262 242 231 230 236 243